Location: *
(12.5665°N, 8.3471°E)
Time: 05:54:11
(UTC+00:00)

Ariane H10 - Pass Details

Date: 23 September 2019
Orbit: 436 x 36063 km, 6.9° (Epoch: 19 October)

Event Time Altitude Azimuth Distance (km) Brightness Sun altitude
Exits shadow 04:24:23 16° 226° (SW) 1,185 3.1 -13.4°
Maximum altitude 04:25:49 25° 180° (S) 954 3.0 -13.0°
Drops below altitude 10° 04:28:55 10° 120° (ESE) 2,057 5.7 -12.3°
Sets 04:32:51 0° 107° (ESE) 4,042 7.8 -11.3°
